Time,TemperatureF,DewpointF,PressureIn,WindDirection,WindDirectionDegrees,WindSpeedMPH,WindSpeedGustMPH,Humidity,HourlyPrecipIn,Conditions,Clouds,dailyrainin,SoftwareType,DateUTC
2013-02-08 00:00:00,21.3,0.7,30.47,ESE,107,0.0,5.0,40,0.00,,,0.00,Wunderground v.1.15,2013-02-08 05:00:00,
2013-02-08 00:10:00,21.2,1.1,30.47,ESE,107,0.0,5.0,41,0.00,,,0.00,Wunderground v.1.15,2013-02-08 05:10:00,
2013-02-08 00:20:00,21.2,1.6,30.46,ESE,107,0.0,5.0,42,0.00,,,0.00,Wunderground v.1.15,2013-02-08 05:20:00,
2013-02-08 00:25:00,21.2,1.1,30.46,ESE,107,0.0,5.0,41,0.00,,,0.00,Wunderground v.1.15,2013-02-08 05:25:00,
2013-02-08 00:35:00,21.1,1.0,30.46,ESE,107,0.0,5.0,41,0.00,,,0.00,Wunderground v.1.15,2013-02-08 05:35:00,
2013-02-08 00:45:00,21.1,2.1,30.46,ESE,107,0.0,5.0,43,0.00,,,0.00,Wunderground v.1.15,2013-02-08 05:45:00,
2013-02-08 00:55:00,21.1,2.1,30.45,ESE,107,0.0,5.0,43,0.00,,,0.00,Wunderground v.1.15,2013-02-08 05:55:00,
2013-02-08 01:05:00,21.1,2.6,30.45,ESE,107,0.0,5.0,44,0.00,,,0.00,Wunderground v.1.15,2013-02-08 06:05:00,
2013-02-08 01:10:00,20.9,1.9,30.45,ESE,107,0.0,5.0,43,0.00,,,0.00,Wunderground v.1.15,2013-02-08 06:10:00,
2013-02-08 01:20:00,20.7,1.7,30.44,ESE,107,0.0,5.0,43,0.00,,,0.00,Wunderground v.1.15,2013-02-08 06:20:00,
2013-02-08 01:30:00,20.4,1.9,30.44,ESE,107,0.0,5.0,44,0.00,,,0.00,Wunderground v.1.15,2013-02-08 06:30:00,
2013-02-08 03:25:00,20.6,8.5,30.39,SE,124,0.0,5.0,59,0.00,,,0.00,Wunderground v.1.15,2013-02-08 08:25:00,
2013-02-08 03:35:00,20.5,8.8,30.39,ESE,109,0.0,5.0,60,0.00,,,0.00,Wunderground v.1.15,2013-02-08 08:35:00,
2013-02-08 03:40:00,20.4,9.1,30.38,ESE,109,0.0,5.0,61,0.00,,,0.00,Wunderground v.1.15,2013-02-08 08:40:00,
2013-02-08 03:50:00,20.4,9.8,30.38,ESE,109,0.0,5.0,63,0.00,,,0.00,Wunderground v.1.15,2013-02-08 08:50:00,
2013-02-08 04:00:00,20.3,10.1,30.38,East,83,0.0,5.0,64,0.00,,,0.00,Wunderground v.1.15,2013-02-08 09:00:00,
2013-02-08 04:10:00,20.2,10.3,30.38,East,82,0.0,5.0,65,0.00,,,0.00,Wunderground v.1.15,2013-02-08 09:10:00,
2013-02-08 04:20:00,20.1,10.6,30.38,ENE,67,0.0,5.0,66,0.00,,,0.00,Wunderground v.1.15,2013-02-08 09:20:00,
2013-02-08 04:30:00,20.0,10.8,30.37,ENE,67,0.0,5.0,67,0.00,,,0.00,Wunderground v.1.15,2013-02-08 09:30:00,
2013-02-08 04:35:00,20.0,10.8,30.37,SSW,213,0.0,5.0,67,0.00,,,0.00,Wunderground v.1.15,2013-02-08 09:35:00,
2013-02-08 04:45:00,19.9,11.7,30.37,East,86,1.0,5.0,70,0.00,,,0.00,Wunderground v.1.15,2013-02-08 09:45:00,
2013-02-08 04:55:00,19.7,11.8,30.37,East,90,1.0,5.0,71,0.00,,,0.00,Wunderground v.1.15,2013-02-08 09:55:00,
2013-02-08 05:05:00,19.7,12.8,30.37,NE,38,0.0,5.0,74,0.00,,,0.00,Wunderground v.1.15,2013-02-08 10:05:00,
2013-02-08 05:15:00,19.7,13.1,30.36,East,92,1.0,5.0,75,0.00,,,0.00,Wunderground v.1.15,2013-02-08 10:15:00,
2013-02-08 05:26:00,19.7,14.0,30.37,ESE,102,0.0,5.0,78,0.00,,,0.00,Wunderground v.1.15,2013-02-08 10:26:00,
2013-02-08 05:35:00,19.5,14.0,30.36,SE,143,1.0,5.0,79,0.00,,,0.00,Wunderground v.1.15,2013-02-08 10:35:00,
2013-02-08 05:45:00,19.5,14.6,30.36,SE,142,0.0,5.0,81,0.00,,,0.00,Wunderground v.1.15,2013-02-08 10:45:00,
2013-02-08 05:55:00,19.2,14.6,30.36,East,80,1.0,5.0,82,0.00,,,0.00,Wunderground v.1.15,2013-02-08 10:55:00,
2013-02-08 06:05:00,19.0,14.7,30.35,ESE,110,1.0,5.0,83,0.00,,,0.00,Wunderground v.1.15,2013-02-08 11:05:00,
2013-02-08 06:15:00,18.8,14.8,30.36,East,82,1.0,5.0,84,0.00,,,0.00,Wunderground v.1.15,2013-02-08 11:15:00,
2013-02-08 06:25:00,18.6,14.8,30.36,East,99,0.0,5.0,85,0.00,,,0.00,Wunderground v.1.15,2013-02-08 11:25:00,
2013-02-08 06:35:00,18.5,14.7,30.36,SSW,193,0.0,5.0,85,0.00,,,0.00,Wunderground v.1.15,2013-02-08 11:35:00,
2013-02-08 06:45:00,18.4,14.9,30.36,East,98,1.0,5.0,86,0.00,,,0.00,Wunderground v.1.15,2013-02-08 11:45:00,
2013-02-08 06:55:00,18.2,14.7,30.35,East,92,1.0,5.0,86,0.00,,,0.00,Wunderground v.1.15,2013-02-08 11:55:00,
2013-02-08 07:05:00,18.2,15.0,30.35,East,93,0.0,5.0,87,0.00,,,0.00,Wunderground v.1.15,2013-02-08 12:05:00,
2013-02-08 07:15:00,18.0,14.8,30.35,East,91,0.0,5.0,87,0.00,,,0.00,Wunderground v.1.15,2013-02-08 12:15:00,
2013-02-08 07:25:00,18.0,14.8,30.35,East,97,0.0,5.0,87,0.00,,,0.00,Wunderground v.1.15,2013-02-08 12:25:00,
2013-02-08 07:30:00,18.0,14.8,30.36,East,97,0.0,5.0,87,0.00,,,0.00,Wunderground v.1.15,2013-02-08 12:30:00,
2013-02-08 07:40:00,17.9,14.7,30.35,ESE,103,0.0,5.0,87,0.00,,,0.00,Wunderground v.1.15,2013-02-08 12:40:00,
2013-02-08 07:50:00,17.9,14.7,30.35,ENE,76,0.0,5.0,87,0.00,,,0.00,Wunderground v.1.15,2013-02-08 12:50:00,
2013-02-08 08:00:00,17.9,14.7,30.35,NE,39,1.0,1.0,87,0.00,,,0.00,Wunderground v.1.15,2013-02-08 13:00:00,
2013-02-08 08:10:00,17.9,14.7,30.35,NE,46,0.0,5.0,87,0.00,,,0.00,Wunderground v.1.15,2013-02-08 13:10:00,
2013-02-08 08:20:00,18.1,14.9,30.34,SW,225,0.0,5.0,87,0.00,,,0.00,Wunderground v.1.15,2013-02-08 13:20:00,
2013-02-08 08:30:00,18.1,14.9,30.34,East,96,0.0,5.0,87,0.00,,,0.00,Wunderground v.1.15,2013-02-08 13:30:00,
2013-02-08 08:40:00,18.2,15.2,30.33,SSE,157,0.0,5.0,88,0.00,,,0.00,Wunderground v.1.15,2013-02-08 13:40:00,
2013-02-08 08:50:00,18.2,15.2,30.33,ENE,72,1.0,5.0,88,0.00,,,0.00,Wunderground v.1.15,2013-02-08 13:50:00,
2013-02-08 08:55:00,18.2,15.2,30.33,SSW,211,1.0,5.0,88,0.00,,,0.00,Wunderground v.1.15,2013-02-08 13:55:00,
2013-02-08 09:05:00,18.4,15.4,30.32,East,91,1.0,5.0,88,0.00,,,0.00,Wunderground v.1.15,2013-02-08 14:05:00,
2013-02-08 09:15:00,18.2,15.2,30.31,East,93,1.0,5.0,88,0.00,,,0.00,Wunderground v.1.15,2013-02-08 14:15:00,
2013-02-08 09:25:00,18.3,15.3,30.31,East,90,1.0,5.0,88,0.00,,,0.00,Wunderground v.1.15,2013-02-08 14:25:00,
2013-02-08 09:30:00,18.3,15.1,30.31,ESE,109,1.0,5.0,87,0.00,,,0.00,Wunderground v.1.15,2013-02-08 14:30:00,
2013-02-08 09:40:00,18.3,15.3,30.31,East,89,1.0,5.0,88,0.00,,,0.00,Wunderground v.1.15,2013-02-08 14:40:00,
2013-02-08 09:50:00,18.4,15.2,30.31,East,98,0.0,5.0,87,0.00,,,0.00,Wunderground v.1.15,2013-02-08 14:50:00,
2013-02-08 10:00:00,18.3,15.1,30.30,ESE,102,0.0,5.0,87,0.00,,,0.00,Wunderground v.1.15,2013-02-08 15:00:00,
2013-02-08 10:05:00,18.3,15.1,30.30,East,101,1.0,5.0,87,0.00,,,0.00,Wunderground v.1.15,2013-02-08 15:05:00,
2013-02-08 10:15:00,18.3,15.1,30.30,ENE,78,1.0,5.0,87,0.00,,,0.00,Wunderground v.1.15,2013-02-08 15:15:00,
2013-02-08 10:25:00,18.3,15.1,30.31,East,80,1.0,5.0,87,0.00,,,0.00,Wunderground v.1.15,2013-02-08 15:25:00,
2013-02-08 10:30:00,18.3,14.8,30.30,ESE,107,1.0,5.0,86,0.00,,,0.00,Wunderground v.1.15,2013-02-08 15:30:00,
2013-02-08 10:40:00,18.2,14.7,30.30,East,87,1.0,5.0,86,0.00,,,0.00,Wunderground v.1.15,2013-02-08 15:40:00,
2013-02-08 10:50:00,18.3,14.8,30.29,East,95,1.0,1.0,86,0.00,,,0.00,Wunderground v.1.15,2013-02-08 15:50:00,
2013-02-08 10:55:00,18.3,14.8,30.28,ESE,121,1.0,5.0,86,0.00,,,0.00,Wunderground v.1.15,2013-02-08 15:55:00,
2013-02-08 11:05:00,18.3,14.8,30.28,SSE,165,1.0,5.0,86,0.00,,,0.00,Wunderground v.1.15,2013-02-08 16:05:00,
2013-02-08 11:15:00,18.2,14.7,30.26,ESE,103,2.0,5.0,86,0.00,,,0.00,Wunderground v.1.15,2013-02-08 16:15:00,
2013-02-08 11:25:00,18.5,15.3,30.26,East,88,1.0,5.0,87,0.00,,,0.00,Wunderground v.1.15,2013-02-08 16:25:00,
2013-02-08 11:35:00,18.7,15.5,30.25,NE,51,1.0,5.0,87,0.00,,,0.00,Wunderground v.1.15,2013-02-08 16:35:00,
2013-02-08 11:40:00,18.7,15.5,30.25,NNW,346,2.0,2.0,87,0.00,,,0.00,Wunderground v.1.15,2013-02-08 16:40:00,
2013-02-08 11:45:00,18.8,15.6,30.25,ENE,71,2.0,5.0,87,0.00,,,0.00,Wunderground v.1.15,2013-02-08 16:45:00,
2013-02-08 11:55:00,19.0,15.8,30.23,East,95,2.0,5.0,87,0.00,,,0.00,Wunderground v.1.15,2013-02-08 16:55:00,
2013-02-08 12:00:00,19.1,15.9,30.23,NW,311,1.0,1.0,87,0.00,,,0.00,Wunderground v.1.15,2013-02-08 17:00:00,
2013-02-08 12:10:00,19.1,15.9,30.22,ENE,59,1.0,5.0,87,0.00,,,0.00,Wunderground v.1.15,2013-02-08 17:10:00,
2013-02-08 12:15:00,19.0,15.8,30.22,WNW,289,1.0,5.0,87,0.00,,,0.00,Wunderground v.1.15,2013-02-08 17:15:00,
2013-02-08 12:25:00,19.1,15.9,30.20,East,83,1.0,5.0,87,0.00,,,0.00,Wunderground v.1.15,2013-02-08 17:25:00,
2013-02-08 12:35:00,19.3,16.1,30.19,ENE,73,1.0,6.0,87,0.00,,,0.00,Wunderground v.1.15,2013-02-08 17:35:00,
2013-02-08 12:45:00,19.3,16.1,30.19,ESE,103,1.0,5.0,87,0.00,,,0.00,Wunderground v.1.15,2013-02-08 17:45:00,
2013-02-08 12:55:00,19.2,16.0,30.19,West,264,1.0,5.0,87,0.00,,,0.00,Wunderground v.1.15,2013-02-08 17:55:00,
2013-02-08 13:05:00,19.2,15.7,30.18,South,173,0.0,5.0,86,0.00,,,0.00,Wunderground v.1.15,2013-02-08 18:05:00,
2013-02-08 13:15:00,19.0,15.5,30.18,NE,38,1.0,5.0,86,0.00,,,0.00,Wunderground v.1.15,2013-02-08 18:15:00,
2013-02-08 13:25:00,19.1,15.6,30.17,East,88,2.0,5.0,86,0.00,,,0.00,Wunderground v.1.15,2013-02-08 18:25:00,
2013-02-08 13:30:00,19.1,15.6,30.17,East,87,2.0,2.0,86,0.00,,,0.00,Wunderground v.1.15,2013-02-08 18:30:00,
2013-02-08 13:40:00,19.5,15.7,30.16,East,90,1.0,5.0,85,0.00,,,0.00,Wunderground v.1.15,2013-02-08 18:40:00,
2013-02-08 13:50:00,19.4,15.6,30.15,ENE,74,2.0,2.0,85,0.00,,,0.00,Wunderground v.1.15,2013-02-08 18:50:00,
2013-02-08 14:00:00,19.7,15.9,30.14,East,88,1.0,5.0,85,0.00,,,0.00,Wunderground v.1.15,2013-02-08 19:00:00,
2013-02-08 14:05:00,19.7,16.2,30.13,ENE,75,1.0,5.0,86,0.00,,,0.00,Wunderground v.1.15,2013-02-08 19:05:00,
2013-02-08 14:15:00,19.7,16.5,30.13,ENE,69,2.0,2.0,87,0.00,,,0.00,Wunderground v.1.15,2013-02-08 19:15:00,
2013-02-08 14:20:00,19.7,16.5,30.13,East,82,1.0,5.0,87,0.00,,,0.00,Wunderground v.1.15,2013-02-08 19:20:00,
2013-02-08 14:30:00,19.7,16.7,30.12,ENE,68,2.0,2.0,88,0.00,,,0.00,Wunderground v.1.15,2013-02-08 19:30:00,
2013-02-08 14:40:00,19.7,17.0,30.11,NE,52,2.0,2.0,89,0.00,,,0.00,Wunderground v.1.15,2013-02-08 19:40:00,
2013-02-08 14:50:00,19.7,17.2,30.11,East,86,1.0,6.0,90,0.00,,,0.00,Wunderground v.1.15,2013-02-08 19:50:00,
2013-02-08 15:00:00,19.6,16.9,30.10,NE,55,2.0,2.0,89,0.00,,,0.00,Wunderground v.1.15,2013-02-08 20:00:00,
2013-02-08 15:10:00,19.3,16.8,30.10,East,80,2.0,5.0,90,0.00,,,0.00,Wunderground v.1.15,2013-02-08 20:10:00,
2013-02-08 15:20:00,19.1,16.7,30.10,East,87,2.0,2.0,90,0.00,,,0.00,Wunderground v.1.15,2013-02-08 20:20:00,
2013-02-08 15:30:00,18.9,16.5,30.09,ENE,69,1.0,5.0,90,0.00,,,0.00,Wunderground v.1.15,2013-02-08 20:30:00,
2013-02-08 15:40:00,18.6,16.2,30.08,East,83,2.0,5.0,90,0.00,,,0.00,Wunderground v.1.15,2013-02-08 20:40:00,
2013-02-08 15:45:00,18.6,16.4,30.08,NE,46,1.0,5.0,91,0.00,,,0.00,Wunderground v.1.15,2013-02-08 20:45:00,
2013-02-08 15:55:00,18.5,16.3,30.07,NE,38,2.0,5.0,91,0.00,,,0.00,Wunderground v.1.15,2013-02-08 20:55:00,
2013-02-08 16:05:00,18.5,16.3,30.06,ENE,68,1.0,5.0,91,0.00,,,0.00,Wunderground v.1.15,2013-02-08 21:05:00,
2013-02-08 16:10:00,18.4,16.2,30.06,North,11,1.0,1.0,91,0.00,,,0.00,Wunderground v.1.15,2013-02-08 21:10:00,
2013-02-08 16:20:00,18.2,16.0,30.05,NNE,15,1.0,5.0,91,0.00,,,0.00,Wunderground v.1.15,2013-02-08 21:20:00,
2013-02-08 16:30:00,18.1,15.9,30.04,NNE,29,2.0,2.0,91,0.00,,,0.00,Wunderground v.1.15,2013-02-08 21:30:00,
2013-02-08 16:40:00,18.0,15.8,30.03,ESE,107,1.0,5.0,91,0.00,,,0.00,Wunderground v.1.15,2013-02-08 21:40:00,
2013-02-08 16:50:00,18.0,15.8,30.03,ESE,109,1.0,1.0,91,0.00,,,0.00,Wunderground v.1.15,2013-02-08 21:50:00,
2013-02-08 17:00:00,18.0,15.8,30.02,East,97,1.0,5.0,91,0.00,,,0.00,Wunderground v.1.15,2013-02-08 22:00:00,
2013-02-08 17:05:00,17.9,15.7,30.02,East,84,2.0,5.0,91,0.00,,,0.00,Wunderground v.1.15,2013-02-08 22:05:00,
2013-02-08 17:15:00,17.8,15.6,30.01,East,81,2.0,5.0,91,0.00,,,0.00,Wunderground v.1.15,2013-02-08 22:15:00,
2013-02-08 17:25:00,17.7,15.5,30.00,East,90,1.0,5.0,91,0.00,,,0.00,Wunderground v.1.15,2013-02-08 22:25:00,
2013-02-08 17:35:00,17.7,15.8,29.99,East,84,0.0,5.0,92,0.00,,,0.00,Wunderground v.1.15,2013-02-08 22:35:00,
2013-02-08 17:40:00,17.7,15.8,29.99,SSW,193,1.0,5.0,92,0.00,,,0.00,Wunderground v.1.15,2013-02-08 22:40:00,
2013-02-08 17:50:00,17.6,15.7,29.99,WSW,250,1.0,5.0,92,0.00,,,0.00,Wunderground v.1.15,2013-02-08 22:50:00,
2013-02-08 18:00:00,17.7,15.8,29.99,East,101,1.0,1.0,92,0.00,,,0.00,Wunderground v.1.15,2013-02-08 23:00:00,
2013-02-08 18:05:00,17.7,15.8,29.99,West,271,1.0,5.0,92,0.00,,,0.00,Wunderground v.1.15,2013-02-08 23:05:00,
2013-02-08 18:30:00,17.7,15.8,29.97,East,96,1.0,1.0,92,0.00,,,0.00,Wunderground v.1.15,2013-02-08 23:30:00,
2013-02-08 18:35:00,17.7,15.8,29.97,ENE,74,1.0,5.0,92,0.00,,,0.00,Wunderground v.1.15,2013-02-08 23:35:00,
2013-02-08 18:45:00,17.8,15.9,29.96,South,176,1.0,5.0,92,0.00,,,0.00,Wunderground v.1.15,2013-02-08 23:45:00,
2013-02-08 18:55:00,17.9,16.0,29.96,North,355,1.0,5.0,92,0.00,,,0.00,Wunderground v.1.15,2013-02-08 23:55:00,
2013-02-08 19:00:00,17.9,16.0,29.96,ESE,108,2.0,5.0,92,0.00,,,0.00,Wunderground v.1.15,2013-02-09 00:00:00,
2013-02-08 19:10:00,17.9,16.0,29.94,NNE,22,2.0,5.0,92,0.00,,,0.00,Wunderground v.1.15,2013-02-09 00:10:00,
2013-02-08 19:15:00,17.9,16.0,29.94,ESE,102,1.0,5.0,92,0.00,,,0.00,Wunderground v.1.15,2013-02-09 00:15:00,
2013-02-08 19:25:00,17.7,15.8,29.93,East,84,1.0,6.0,92,0.00,,,0.00,Wunderground v.1.15,2013-02-09 00:25:00,
2013-02-08 19:35:00,17.6,15.7,29.91,East,90,2.0,5.0,92,0.00,,,0.00,Wunderground v.1.15,2013-02-09 00:35:00,
2013-02-08 19:45:00,17.5,15.6,29.91,ESE,105,2.0,5.0,92,0.00,,,0.00,Wunderground v.1.15,2013-02-09 00:45:00,
2013-02-08 19:55:00,17.4,15.5,29.91,East,80,2.0,5.0,92,0.00,,,0.00,Wunderground v.1.15,2013-02-09 00:55:00,
2013-02-08 20:05:00,17.3,15.4,29.90,WSW,256,3.0,7.0,92,0.00,,,0.00,Wunderground v.1.15,2013-02-09 01:05:00,
2013-02-08 20:15:00,17.1,15.2,29.89,NNE,21,2.0,5.0,92,0.00,,,0.00,Wunderground v.1.15,2013-02-09 01:15:00,
2013-02-08 20:25:00,16.9,15.0,29.89,SW,214,3.0,5.0,92,0.00,,,0.00,Wunderground v.1.15,2013-02-09 01:25:00,
2013-02-08 20:35:00,16.8,14.9,29.88,East,90,2.0,5.0,92,0.00,,,0.00,Wunderground v.1.15,2013-02-09 01:35:00,
2013-02-08 20:45:00,16.7,14.8,29.87,East,88,1.0,5.0,92,0.00,,,0.00,Wunderground v.1.15,2013-02-09 01:45:00,
2013-02-08 20:55:00,16.5,14.6,29.86,WSW,241,2.0,5.0,92,0.00,,,0.00,Wunderground v.1.15,2013-02-09 01:55:00,
2013-02-08 21:05:00,16.4,14.5,29.85,WNW,294,2.0,5.0,92,0.00,,,0.00,Wunderground v.1.15,2013-02-09 02:05:00,
2013-02-08 21:15:00,16.2,14.3,29.84,ENE,74,1.0,5.0,92,0.00,,,0.00,Wunderground v.1.15,2013-02-09 02:15:00,
2013-02-08 21:25:00,16.0,14.1,29.84,ENE,74,3.0,3.0,92,0.00,,,0.00,Wunderground v.1.15,2013-02-09 02:25:00,
2013-02-08 21:35:00,15.9,14.0,29.84,WSW,257,1.0,5.0,92,0.00,,,0.00,Wunderground v.1.15,2013-02-09 02:35:00,
2013-02-08 21:40:00,15.9,14.0,29.83,East,95,1.0,5.0,92,0.00,,,0.00,Wunderground v.1.15,2013-02-09 02:40:00,
2013-02-08 21:50:00,15.8,13.9,29.82,NNE,19,2.0,6.0,92,0.00,,,0.00,Wunderground v.1.15,2013-02-09 02:50:00,
2013-02-08 22:00:00,15.7,13.8,29.82,NW,304,2.0,2.0,92,0.00,,,0.00,Wunderground v.1.15,2013-02-09 03:00:00,
2013-02-08 22:05:00,15.7,13.8,29.82,NE,41,2.0,3.0,92,0.00,,,0.00,Wunderground v.1.15,2013-02-09 03:05:00,
2013-02-08 22:15:00,15.6,13.7,29.80,NE,50,2.0,8.0,92,0.00,,,0.00,Wunderground v.1.15,2013-02-09 03:15:00,
2013-02-08 22:25:00,15.6,13.7,29.80,East,97,2.0,5.0,92,0.00,,,0.00,Wunderground v.1.15,2013-02-09 03:25:00,
2013-02-08 23:05:00,15.2,13.3,29.76,ESE,123,2.0,2.0,92,0.00,,,0.00,Wunderground v.1.15,2013-02-09 04:05:00,
2013-02-08 23:15:00,15.1,13.2,29.76,East,87,1.0,5.0,92,0.00,,,0.00,Wunderground v.1.15,2013-02-09 04:15:00,
2013-02-08 23:25:00,15.2,13.3,29.74,ENE,71,2.0,2.0,92,0.00,,,0.00,Wunderground v.1.15,2013-02-09 04:25:00,
2013-02-08 23:35:00,15.2,13.3,29.75,SW,234,2.0,5.0,92,0.00,,,0.00,Wunderground v.1.15,2013-02-09 04:35:00,
2013-02-08 23:45:00,15.1,13.2,29.73,South,186,2.0,2.0,92,0.00,,,0.00,Wunderground v.1.15,2013-02-09 04:45:00,
2013-02-08 23:55:00,14.9,13.0,29.73,WSW,241,2.0,5.0,92,0.00,,,0.00,Wunderground v.1.15,2013-02-09 04:55:00,